Location: ?????????
(38.5999°N, 22.7695°E)
Time: 14:58:56
(UTC+00:00)

OAO 3 Rocket - Pass Details

Date: 23 May 2024
Orbit: 622 x 671 km, 35.0° (Epoch: 13 June)

Event Time Altitude Azimuth Distance (km) Brightness Sun altitude
Exits shadow 02:24:13 - 267° (W) 2,380 5.5 -8.6°
Reaches altitude 10° 02:25:03 10° 263° (W) 2,089 5.2 -8.5°
Maximum altitude 02:29:27 34° 199° (SSW) 1,093 3.9 -7.8°
Drops below altitude 10° 02:33:48 10° 135° (SE) 2,069 5.9 -7.1°
Sets 02:36:19 0° 126° (SE) 2,973 6.8 -6.7°
